Regional Weather Roundup
Issued by NWS Kansas City/Pleasant Hill, MO

Home | Current Version | Previous Version | Graphics & Text | Print | Product List | Glossary Off
Versions: 1 2 3 4 5 6 7 8 9 10 11 12 13 14 15 16 17 18 19 20 21 22 23 24 25 26 27 28 29 30 31 32 33 34 35 36 37 38 39 40 41 42 43 44 45 46 47 48 49 50

000
ASUS43 KEAX 261210
RWREAX

WEATHER ROUNDUP FOR EASTERN KANSAS AND NORTHWEST MISSOURI
NATIONAL WEATHER SERVICE KANSAS CITY/PLEASANT HILL MO
600 AM CST FRI DEC 26 2014

KSZ040-057-103>105-MOZ028-029-037-043-261300-
...KANSAS CITY METROPOLITAN AREA...

CITY           SKY/WX    TMP DP  RH WIND       PRES   REMARKS
K.C. INTL      CLOUDY    45  33  63 S12       29.86R
6HR MIN TEMP:  44; 6HR MAX TEMP:  46;

K.C. DOWNTOWN  CLOUDY    47  33  58 S10       29.88R
6HR MIN TEMP:  47; 6HR MAX TEMP:  49;

LEES SUMMIT    MOCLDY    44  32  62 S9        29.89R
6HR MIN TEMP:  43; 6HR MAX TEMP:  47;

OLATHE - IXD   CLOUDY    45  35  68 S9        29.87R
6HR MIN TEMP:  45; 6HR MAX TEMP:  47;

OLATHE - OJC   CLOUDY    46  35  65 S9        29.87R
6HR MIN TEMP:  46; 6HR MAX TEMP:  47;

LAWRENCE       CLOUDY    45  33  63 S9        29.86R

$$

MOZ001>008-011>017-020>025-030>033-038>040-044>046-053-054-261300-
...NORTHERN AND CENTRAL MISSOURI...

CITY           SKY/WX    TMP DP  RH WIND       PRES   REMARKS
ST. JOSEPH     CLOUDY    40  31  70 S3        29.87R
6HR MIN TEMP:  36; 6HR MAX TEMP:  45;

MOSBY          CLOUDY    43  32  65 SE7       29.88R
WARRENSBURG    MOCLDY    43  34  70 S7        29.91R
WHITEMAN AFB   MOCLDY    46  36  68 S14G21    29.91R
6HR MIN TEMP:  44; 6HR MAX TEMP:  46;

CLINTON        PTCLDY    45  36  70 S9        29.93R
SEDALIA        MOCLDY    46  34  62 S16       29.93R
6HR MIN TEMP:  44; 6HR MAX TEMP:  47;

WARSAW         NOT AVBL
MARSHALL       MOCLDY    48  37  66 S9        29.93R
CHILLICOTHE      N/A     42  32  67 S8        29.90R
6HR MIN TEMP:  39; 6HR MAX TEMP:  43;

MOBERLY        MOCLDY    45  32  61 S8        29.94R
KIRKSVILLE     MOCLDY    36  33  89 S8        29.92R WCI  30
6HR MIN TEMP:  31; 6HR MAX TEMP:  41;


$$

MOZ041-047>049-056>058-063>065-088>090-097-261300-
...EASTERN AND SOUTHERN MISSOURI...

CITY           SKY/WX    TMP DP  RH WIND       PRES   REMARKS
ST. LOUIS INTL PTCLDY    43  35  73 S9        30.05S
6HR MIN TEMP:  38; 6HR MAX TEMP:  44;

SPIRIT OF STL  CLEAR     44  35  70 S8        30.04R
COLUMBIA       MOCLDY    40  33  76 SE12      29.96R WCI  33
JEFFERSON CITY PTCLDY    41  34  76 E9        29.99R
MEXICO         PTCLDY    41  37  87 S14       29.96R WCI  33
HANNIBAL       MOCLDY    43  32  65 S9        29.97R
ROLLA          CLEAR     40  35  83 S16       30.00R WCI  31
LEBANON        CLEAR     39  34  81 S9        30.00R WCI  33
OSAGE BEACH    PTCLDY    43  34  70 S9        29.98R
SPRINGFIELD    CLEAR     41  34  76 S15       29.97R WCI  33
NEVADA         PTCLDY    45  37  76 S14       29.93R
JOPLIN         PTCLDY    47  39  74 S15       29.95R
WEST PLAINS    CLEAR     38  34  85 S6        30.08R WCI  33

$$

IAZ060-094-KSZ022-034>040-054-083-096-NEZ052-066-093-261300-
...KANSAS...SOUTHEAST NEBRASKA AND IOWA...

CITY           SKY/WX    TMP DP  RH WIND       PRES   REMARKS
TOPEKA         CLOUDY    39  32  76 CALM      29.86R
6HR MIN TEMP:  37; 6HR MAX TEMP:  49;

MANHATTAN      CLOUDY    32  30  92 VRB6G16   29.88R WCI  26
EMPORIA        CLOUDY    43  33  68 S14       29.84R
CHANUTE        PTCLDY    44  37  76 S13       29.89R
WICHITA        CLOUDY    38  29  70 N14       29.85R WCI  30
OMAHA          CLOUDY    34  31  88 N12       29.90R WCI  25
LINCOLN        CLOUDY    33  29  85 N14       29.92R WCI  23
FALLS CITY     CLOUDY    31  30  96 NW13      29.88R FOG     WCI  21
LAMONI         PTCLDY    35  30  82 S7        29.84R WCI  29
DES MOINES     PTCLDY    35  29  78 S6        29.85R WCI  30

$$




USA.gov is the U.S. government's official web portal to all federal, state and local government web resources and services.